Find Local Weather

World > North America > United States > North Carolina

Raleigh, North Carolina Regional Weather

Lat: 35.82N, Lon: 78.66W
Wx Zone: NCZ041
Warning FLW WEATHER ALERT - (More Info. Click Here) Warning
Feedback
Expires:201806190500;;760026
ASUS42 KRAH 190410
RWRRAH
NORTH CAROLINA WEATHER ROUNDUP
NATIONAL WEATHER SERVICE RALEIGH NC
1200 AM EDT TUE JUN 19 2018

NOTE: "FAIR" INDICATES FEW OR NO CLOUDS BELOW 12,000 FEET WITH NO
SIGNIFICANT WEATHER AND/OR OBSTRUCTIONS TO VISIBILITY.


NCZ021-022-025-041-071-084-088-190500-
CENTRAL NORTH CAROLINA
  
CITY           SKY/WX    TMP DP  RH WIND       PRES   REMARKS
CHARLOTTE      FAIR      82  73  74 SW6       30.04S                  
GREENSBORO     FAIR      80  71  74 W8        30.01S                  
WINSTON-SALEM  FAIR      78  71  79 CALM      30.03F                  
RALEIGH-DURHAM MOCLDY    79  74  84 SW5       29.99S                  
FORT BRAGG     FAIR      80  71  72 SW8       29.99S                  
FAYETTEVILLE   FAIR      78  71  79 SW9       29.99F                  
BURLINGTON     FAIR      78  71  79 S3        29.99S                  
LAURINBURG     FAIR      74  73  97 CALM      30.01S                  
$$
 

SKY/WX - Weather  TMP - Temperature  DP - Dewpoint  RH - Relative Humidity
WIND - Wind Direction/Speed PRES - Barometric Pressure